Simultaneous Nadir Overpasses (SNOs) Predictions

Prediction of SNOs between LANDSAT-8 and METOP-B Satellite Orbit:

Table of predicted SNOs for the next 14.0 days since TLE Epoch: 7/14/2017
Index Date (LANDSAT-8) Time (LANDSAT-8) Lat,Lon (LANDSAT-8) SZA (LANDSAT-8 ) Date (METOP-B) Time (METOP-B) Lat,Lon (METOP-B) SZA (METOP-B ) Distance(km) Time Diff (sec)
1 07/17/2017 06:54:07 -81.19, -62.48 117.86 07/17/2017 06:53:24 -81.19, -62.34 117.86 2.48 43
2 07/17/2017 07:43:33 81.20, 105.26 62.16 07/17/2017 07:44:04 81.20, 105.35 62.19 1.64 31
3 07/20/2017 02:28:24 -81.19, 3.90 117.37 07/20/2017 02:27:45 -81.18, 3.88 117.39 0.28 39
4 07/20/2017 03:17:49 81.21, 171.98 62.70 07/20/2017 03:18:24 81.21, 171.91 62.71 1.37 35
5 07/22/2017 22:02:41 -81.18, 70.24 116.84 07/22/2017 22:02:06 -81.18, 70.09 116.87 2.66 35
6 07/22/2017 22:52:06 81.20,-121.71 63.23 07/22/2017 22:52:44 81.21,-121.54 63.27 2.82 38
7 07/25/2017 17:36:57 -81.19, 136.92 116.21 07/25/2017 17:36:25 -81.19, 137.03 116.21 1.93 32
8 07/25/2017 18:26:22 81.22, -55.05 63.86 07/25/2017 18:27:04 81.21, -55.01 63.88 0.84 42
9 07/28/2017 13:11:13 -81.19,-156.80 115.60 07/28/2017 13:10:45 -81.19,-156.79 115.61 0.31 28




NCC Satellite Simultaneous Nadir Overpasses (SNOs) Prediction Service
